Weather History for Hayward, WI

Change the Weather History Date:

Friday, February 15, 2013

  Actual Average Record
Temperature  
Mean Temperature 8 °F -  
Max Temperature 17 °F 25 °F 42 °F (1998)
Min Temperature 0 °F -5 °F -29 °F (2004)
Degree Days  
Heating Degree Days 56    
Moisture  
Dew Point -2 °F    
Average Humidity 67    
Maximum Humidity 83    
Minimum Humidity 39    
Precipitation  
Precipitation 0.00 in - - ()
Sea Level Pressure  
Sea Level Pressure 30.23 in    
Wind  
Wind Speed 2 mph (NW)    
Max Wind Speed 9 mph    
Max Gust Speed -    
Visibility 9 miles    
Events Snow    
Averages and records for this station are not official NWS values.
T = Trace of Precipitation, MM = Missing Value Source: NWS Daily Summary

Daily Weather History Graph

Daily Weather History Graph

Search for Another Location

Airport:

Trip Planner

Search our weather history database for the weather conditions in past years. The results will help you decide how hot, cold, wet, or windy it might be!

Date:

Astronomy

Feb. 15, 2013 Rise Set
Actual Time 7:08 AM CST 5:32 PM CST
Civil Twilight 6:37 AM CST 6:03 PM CST
Nautical Twilight 6:02 AM CST 6:38 PM CST
Astronomical Twilight 5:27 AM CST 7:12 PM CST
Moon 9:23 AM CST (2/15) 11:56 PM CST (2/15)
Length of Visible Light 11h 25m
Length of Day
10h 24m
Waxing Crescent, 30% of the Moon is Illuminated
Feb 15
Waxing Crescent
Feb 17
First Quarter
Feb 25
Full
Mar 4
Last Quarter
Mar 11
New

Hourly Weather History & Observations

Time (CST) Temp. Windchill Dew Point Humidity Pressure Visibility Wind Dir Wind Speed Gust Speed Precip Events Conditions
12:53 AM 1.9 °F - -5.1 °F 72% 30.15 in 10.0 mi Calm Calm - N/A   Scattered Clouds
1:53 AM -0.0 °F - -6.0 °F 76% 30.16 in 10.0 mi Calm Calm - N/A   Overcast
2:53 AM 1.9 °F - -4.0 °F 76% 30.17 in 10.0 mi Calm Calm - N/A   Overcast
3:53 AM -0.0 °F - -5.1 °F 79% 30.18 in 10.0 mi Calm Calm - N/A   Overcast
4:53 AM 1.9 °F - -2.0 °F 83% 30.19 in 10.0 mi Calm Calm - N/A   Overcast
5:53 AM 1.9 °F - -4.0 °F 76% 30.22 in 10.0 mi Calm Calm - N/A   Mostly Cloudy
6:53 AM -0.9 °F - -5.1 °F 83% 30.23 in 10.0 mi Calm Calm - N/A   Mostly Cloudy
7:53 AM 5.0 °F -2.1 °F -0.0 °F 80% 30.24 in 3.0 mi WNW 3.5 mph - N/A   Haze
8:35 AM 6.8 °F -0.1 °F -0.4 °F 72% 30.17 in 7.0 mi Variable 3.5 mph - N/A   Overcast
8:53 AM 6.1 °F -0.9 °F 1.0 °F 80% 30.27 in 6.0 mi Variable 3.5 mph - N/A   Haze
9:34 AM 8.6 °F 0.1 °F 1.4 °F 73% 30.18 in 10.0 mi Variable 4.6 mph - N/A   Scattered Clouds
9:53 AM 8.1 °F -2.0 °F 1.0 °F 73% 30.27 in 10.0 mi Variable 5.8 mph - N/A   Clear
10:53 AM 12.0 °F -0.4 °F 1.0 °F 61% 30.27 in 10.0 mi North 9.2 mph - N/A   Scattered Clouds
11:53 AM 14.0 °F 6.5 °F -0.9 °F 52% 30.27 in 10.0 mi Variable 4.6 mph - N/A   Clear
12:53 PM 15.1 °F 4.2 °F -2.9 °F 45% 30.25 in 10.0 mi WNW 8.1 mph - N/A   Clear
1:53 PM 17.1 °F 7.6 °F -4.0 °F 39% 30.25 in 10.0 mi Variable 6.9 mph - N/A   Clear
2:53 PM 17.1 °F 6.6 °F -2.9 °F 41% 30.25 in 10.0 mi North 8.1 mph - N/A   Partly Cloudy
3:53 PM 16.0 °F 6.3 °F -2.9 °F 43% 30.26 in 10.0 mi WNW 6.9 mph - N/A   Partly Cloudy
4:53 PM 15.1 °F 7.7 °F -2.9 °F 45% 30.26 in 10.0 mi Variable 4.6 mph - N/A   Mostly Cloudy
5:53 PM 14.0 °F 8.2 °F -2.0 °F 49% 30.27 in 10.0 mi Variable 3.5 mph - N/A   Overcast
6:53 PM 12.0 °F - -2.0 °F 53% 30.28 in 10.0 mi Calm Calm - N/A   Overcast
7:53 PM 12.0 °F 5.9 °F -0.9 °F 56% 30.27 in 10.0 mi Variable 3.5 mph - N/A   Overcast
8:53 PM 10.0 °F - 1.9 °F 70% 30.27 in 7.0 mi Calm Calm - 0.00 in Snow Light Snow
9:53 PM 9.0 °F - 1.0 °F 70% 30.27 in 10.0 mi Calm Calm - 0.00 in   Overcast
10:53 PM 3.9 °F - -0.9 °F 80% 30.27 in 10.0 mi Calm Calm - N/A   Scattered Clouds
11:23 PM 1.4 °F - -4.0 °F 78% 30.17 in 5.0 mi Calm Calm - 0.00 in Snow Light Snow
11:33 PM -0.4 °F - -5.8 °F 78% 30.17 in 2.5 mi Calm Calm - 0.00 in Snow Light Snow
11:39 PM -0.4 °F - -5.8 °F 78% 30.17 in 8.0 mi Calm Calm - 0.00 in   Scattered Clouds
11:53 PM -0.9 °F - -7.1 °F 75% 30.26 in 10.0 mi Calm Calm - 0.00 in   Partly Cloudy